Temp
77 79 72 72 75 74 72 69 68 71 73 72 71 71 70 70 71 69 70 71 73 74 78 77 76 76 76 76 74 74 74 74 74 75 75 76 76 76 76 75 75 74 76 76
77 71 73 74 74 73 72 68 68 71 73 73 69 65 67 69 69 71 70 71 73 74 75 77 77 76 76 74 74 74 74 74 73 73 71 71 71 74 73 73 72 72 72 72
72 73 73 73 72 71 69 68 67 67 69 69 67 63 62 66 68 69 71 73 74 73 74 76 76 75 75 73 74 74 74 73 71 69 71 72 73 73 74 75 74 72 70 70
74 75 73 72 70 71 66 71 69 67 64 61 64 59 60 63 65 66 70 72 72 73 74 74 74 74 74 75 75 74 72 70 71 69 69 67 67 66 70 69 70 69 70 69
70 72 71 70 69 71 68 69 65 63 63 61 61 60 61 61 61 64 68 71 72 75 75 75 75 75 76 73 72 70 69 68 68 67 66 68 66 68 69 68 65 65 67 67
72 76 75 73 71 71 69 68 62 61 62 57 56 57 61 64 63 65 69 71 73 75 74 71 73 72 73 72 71 69 68 67 67 66 66 64 62 61 62 63 62 65 66 66
70 71 74 75 71 71 71 65 57 56 56 54 57 56 60 65 67 69 70 72 73 71 70 71 72 73 70 69 68 69 67 66 66 65 64 63 61 60 59 60 61 59 62 63
64 61 70 73 71 67 63 63 57 46 49 54 57 54 63 67 68 68 71 72 68 68 71 70 70 70 69 68 67 67 66 65 65 63 62 61 61 62 61 60 59 59 59 60
62 62 71 71 73 70 62 61 61 53 50 51 58 59 65 67 67 66 66 66 66 67 66 68 69 68 67 67 66 65 64 64 64 62 61 60 60 59 58 58 58 60 59 60
65 60 66 69 72 68 67 65 57 57 46 45 55 53 60 62 65 65 63 65 66 66 67 68 68 67 66 66 65 65 66 64 62 62 62 60 58 58 58 58 56 57 58 57
66 63 64 66 64 63 64 62 57 57 55 49 48 57 64 63 65 65 66 67 66 66 68 68 68 66 66 66 67 66 65 63 62 61 60 58 58 58 57 55 53 53 54 55
62 61 59 61 65 65 64 61 59 54 50 52 51 53 65 63 64 63 65 66 67 67 67 67 67 66 65 65 66 65 63 62 61 60 59 58 57 57 55 52 53 53 52 53
64 56 53 57 62 63 61 60 57 55 53 50 48 55 63 62 62 64 64 66 65 65 67 67 67 66 65 64 63 62 61 60 60 59 57 57 56 55 53 53 55 52 51 50
63 56 58 54 58 61 57 59 60 58 50 54 54 57 64 64 62 64 64 65 66 66 65 66 65 65 65 63 61 59 59 59 59 57 55 54 55 55 55 55 51 49 50 49
64 58 57 59 58 58 59 59 59 55 58 51 57 57 63 65 63 64 64 64 64 64 64 64 63 63 63 61 59 58 57 57 57 55 52 53 54 53 53 53 50 50 50 50
59 57 57 56 57 57 55 60 59 58 57 56 56 56 64 63 64 63 63 63 63 63 63 63 62 62 60 58 57 56 55 55 54 51 51 54 53 53 53 49 49 49 50 50
60 57 55 53 54 55 52 60 60 60 61 59 55 62 62 61 62 63 64 64 62 62 61 61 61 59 58 56 56 55 54 54 53 51 51 51 53 53 50 49 49 49 49 50
56 55 55 53 52 45 60 63 62 60 61 62 61 62 62 63 64 65 67 64 62 61 61 61 61 58 57 57 56 55 55 52 51 51 51 53 54 51 49 48 49 49 50 50
61 57 51 49 49 55 60 59 60 58 59 65 63 63 62 62 61 64 65 63 62 61 61 60 59 57 56 56 55 54 54 53 50 49 50 52 52 48 48 47 48 50 49 49
57 58 58 49 46 46 59 62 64 63 53 66 63 63 62 59 56 64 62 62 61 60 60 58 58 57 55 55 54 53 53 48 48 50 50 52 50 48 47 48 49 50 50 49
53 54 52 50 50 54 63 64 64 51 55 65 63 64 60 58 64 61 61 60 61 60 58 58 57 55 54 54 53 51 48 48 51 51 51 52 51 48 48 49 49 49 49 49
55 49 50 49 48 46 64 61 53 65 63 64 64 64 62 63 61 60 61 60 59 58 58 57 55 55 55 54 52 49 48 53 51 50 50 52 52 51 49 48 49 50 49 48
53 61 56 54 57 62 62 65 68 64 65 65 65 65 64 63 62 62 61 60 59 58 57 57 55 53 54 54 53 48 51 51 51 49 48 51 51 51 49 48 49 49 49 47
58 59 60 55 64 60 62 65 65 67 65 67 66 65 63 64 63 62 60 59 58 58 56 56 54 52 52 53 52 49 50 51 50 48 48 50 49 48 48 49 49 49 48 46
62 59 59 58 62 63 66 65 69 68 65 65 65 64 64 64 62 62 60 58 58 57 56 55 53 51 51 52 49 50 52 51 49 48 49 50 49 48 47 48 49 48 48 42
62 60 58 59 67 66 69 70 70 66 66 67 64 62 63 64 63 61 60 59 57 56 55 54 53 51 50 50 49 49 50 50 48 47 49 49 48 48 47 48 49 46 42 39
MSLP
1011.80 1011.62 1012.08 1012.54 1012.44 1012.57 1012.83 1013.05 1013.22 1013.60 1014.02 1013.97 1014.33 1014.77 1015.62 1016.61 1017.24 1017.70 1018.12 1018.40 1018.44 1018.77 1019.12 1019.47 1019.61 1019.82 1019.97 1020.24 1020.42 1020.36 1020.18 1020.11 1020.23 1020.12 1019.74 1019.32 1019.06 1018.99 1018.79 1018.90 1018.73 1018.88 1018.52 1018.39
1012.16 1012.41 1013.18 1013.35 1013.25 1013.10 1013.17 1013.24 1013.45 1013.70 1014.01 1014.01 1014.43 1015.15 1015.90 1016.93 1017.49 1017.98 1018.23 1018.39 1018.56 1018.99 1019.20 1019.24 1019.42 1019.84 1020.14 1020.41 1020.46 1020.32 1020.10 1020.09 1020.32 1020.34 1020.33 1020.19 1019.87 1019.29 1019.03 1018.80 1018.63 1018.81 1018.53 1018.54
1012.40 1013.35 1013.73 1013.61 1013.51 1013.40 1013.66 1013.73 1013.97 1014.23 1014.47 1014.75 1014.96 1015.50 1016.42 1017.26 1017.86 1018.26 1018.46 1018.50 1018.73 1018.91 1018.99 1019.05 1019.34 1019.72 1020.07 1020.25 1020.29 1020.20 1020.07 1020.21 1020.36 1020.46 1020.19 1019.87 1019.36 1019.05 1018.60 1018.25 1018.14 1018.24 1018.44 1018.45
1013.14 1013.70 1013.71 1013.71 1013.82 1014.03 1014.00 1014.39 1014.64 1014.81 1015.01 1015.00 1015.82 1015.39 1016.42 1017.08 1017.42 1017.88 1018.02 1018.26 1018.43 1018.80 1018.98 1019.23 1019.48 1019.74 1020.01 1020.05 1020.19 1020.19 1020.22 1020.29 1020.22 1020.31 1020.03 1019.90 1019.61 1019.27 1019.02 1019.02 1018.70 1018.54 1018.24 1018.11
1013.63 1013.68 1013.81 1013.80 1014.24 1014.49 1014.74 1015.02 1015.33 1015.46 1015.43 1015.73 1016.00 1016.13 1016.30 1017.03 1017.06 1017.23 1017.58 1017.88 1018.20 1018.43 1018.77 1019.01 1019.36 1019.56 1019.76 1020.06 1020.36 1020.48 1020.48 1020.47 1020.48 1020.45 1020.36 1020.02 1019.82 1019.64 1019.45 1019.25 1018.90 1018.54 1017.98 1017.78
1013.76 1014.02 1014.00 1014.03 1014.57 1014.89 1015.20 1015.27 1015.79 1016.10 1015.97 1015.84 1016.56 1016.68 1015.94 1016.42 1016.68 1016.74 1017.19 1017.55 1017.84 1018.29 1018.85 1019.42 1019.62 1019.77 1019.92 1020.30 1020.51 1020.61 1020.64 1020.68 1020.70 1020.64 1020.53 1020.42 1020.22 1019.97 1019.56 1019.15 1018.81 1018.25 1017.91 1017.53
1014.06 1014.14 1014.24 1014.43 1014.61 1015.15 1015.16 1015.52 1015.56 1015.75 1015.83 1016.07 1016.96 1016.81 1016.18 1016.43 1016.61 1016.63 1016.81 1017.27 1017.96 1018.70 1019.23 1019.52 1019.69 1019.84 1020.17 1020.41 1020.63 1020.67 1020.78 1020.68 1020.73 1020.64 1020.51 1020.46 1020.37 1020.18 1019.72 1019.25 1018.71 1018.46 1017.81 1017.35
1014.35 1014.41 1014.46 1014.68 1014.84 1015.24 1015.99 1016.41 1016.56 1016.65 1016.71 1016.60 1016.99 1016.35 1016.04 1016.54 1016.99 1017.27 1017.33 1017.78 1018.62 1019.14 1019.51 1019.77 1020.05 1020.25 1020.37 1020.63 1020.81 1020.84 1020.84 1020.72 1020.71 1020.70 1020.65 1020.56 1020.34 1019.88 1019.45 1018.97 1018.80 1018.30 1017.80 1017.34
1015.00 1014.91 1015.00 1015.15 1015.37 1015.93 1016.43 1016.98 1017.77 1017.72 1018.29 1017.58 1016.65 1016.54 1016.27 1016.61 1016.99 1017.46 1017.88 1018.46 1018.98 1019.47 1019.87 1020.09 1020.31 1020.52 1020.66 1020.83 1020.92 1020.96 1020.93 1020.82 1020.70 1020.60 1020.40 1020.14 1019.84 1019.47 1019.05 1018.68 1018.31 1017.72 1017.30 1016.76
1015.53 1015.60 1015.67 1015.86 1015.97 1016.59 1016.68 1017.60 1018.04 1018.10 1017.88 1017.30 1016.54 1016.44 1015.89 1016.48 1016.77 1017.57 1018.18 1018.64 1019.15 1019.66 1019.95 1020.14 1020.38 1020.62 1020.83 1020.90 1020.93 1020.99 1020.78 1020.60 1020.48 1020.30 1019.97 1019.66 1019.42 1019.04 1018.69 1018.26 1017.76 1017.37 1016.91 1016.55
1016.09 1016.33 1016.31 1016.41 1016.60 1016.80 1017.41 1017.52 1018.36 1018.65 1018.61 1017.99 1017.03 1016.00 1016.39 1016.78 1017.20 1017.48 1018.06 1018.66 1019.12 1019.52 1019.81 1020.02 1020.30 1020.54 1020.71 1020.73 1020.63 1020.55 1020.42 1020.26 1020.05 1019.92 1019.67 1019.33 1018.95 1018.64 1018.25 1017.91 1017.52 1017.04 1016.57 1016.15
1017.21 1017.19 1016.94 1017.02 1017.38 1017.69 1017.71 1017.90 1018.29 1018.48 1018.75 1018.77 1018.33 1016.76 1016.84 1017.24 1017.51 1017.78 1018.22 1018.78 1019.19 1019.55 1019.76 1020.00 1020.21 1020.37 1020.43 1020.52 1020.46 1020.38 1020.31 1020.08 1019.78 1019.61 1019.25 1018.86 1018.55 1018.12 1017.65 1017.35 1016.86 1016.45 1016.00 1015.54
1017.41 1018.02 1017.81 1017.60 1017.94 1017.95 1017.81 1018.26 1018.77 1019.11 1019.13 1018.49 1018.00 1016.57 1017.03 1017.48 1017.80 1018.16 1018.46 1018.88 1019.20 1019.52 1019.59 1019.79 1020.01 1020.12 1020.24 1020.33 1020.38 1020.40 1020.21 1019.82 1019.58 1019.30 1018.97 1018.36 1017.93 1017.51 1017.17 1016.67 1016.04 1015.72 1015.19 1014.71
1017.62 1018.37 1018.06 1017.81 1017.74 1018.07 1018.01 1018.20 1018.52 1018.72 1018.73 1017.88 1017.31 1016.59 1016.58 1017.08 1017.47 1018.07 1018.48 1018.83 1018.98 1019.30 1019.52 1019.69 1019.85 1019.93 1020.08 1020.21 1020.31 1020.26 1020.00 1019.73 1019.37 1019.01 1018.61 1018.05 1017.54 1017.09 1016.56 1015.98 1015.52 1015.00 1014.47 1014.04
1018.12 1018.36 1018.58 1018.22 1018.30 1018.35 1018.09 1018.02 1018.14 1018.36 1018.15 1018.05 1016.96 1016.97 1016.44 1016.87 1017.25 1017.90 1018.35 1018.71 1018.96 1019.13 1019.41 1019.61 1019.76 1019.93 1020.01 1020.06 1020.17 1020.04 1019.78 1019.44 1019.11 1018.69 1018.35 1017.72 1017.26 1016.77 1016.05 1015.35 1014.81 1014.27 1013.67 1013.18
1018.68 1018.80 1018.86 1018.41 1018.41 1018.29 1017.94 1017.60 1017.72 1017.79 1017.82 1017.72 1017.43 1016.91 1016.77 1017.27 1017.63 1018.00 1018.31 1018.64 1018.87 1019.11 1019.46 1019.63 1019.83 1019.97 1020.08 1020.19 1020.16 1019.88 1019.51 1019.24 1018.99 1018.55 1018.00 1017.42 1016.86 1016.11 1015.37 1014.81 1014.20 1013.51 1012.81 1012.34
1018.47 1018.75 1019.03 1018.49 1018.58 1018.26 1017.60 1016.84 1016.98 1017.13 1017.23 1017.26 1016.91 1016.77 1017.18 1017.39 1017.71 1017.93 1018.14 1018.51 1018.85 1019.26 1019.59 1019.70 1019.95 1020.19 1020.37 1020.36 1020.17 1019.72 1019.43 1019.20 1018.82 1018.27 1017.74 1017.09 1016.32 1015.52 1014.88 1014.32 1013.62 1012.85 1012.10 1011.59
1018.63 1019.05 1019.33 1018.84 1018.69 1017.87 1016.94 1016.97 1017.03 1016.98 1016.75 1016.85 1016.81 1016.86 1017.19 1017.47 1017.76 1018.02 1018.19 1018.51 1018.94 1019.50 1019.74 1019.90 1020.15 1020.41 1020.47 1020.37 1020.06 1019.83 1019.41 1019.16 1018.75 1018.09 1017.40 1016.63 1015.79 1015.12 1014.45 1013.73 1012.95 1012.19 1011.48 1011.04
1018.63 1018.94 1019.24 1019.27 1018.57 1017.58 1016.61 1016.81 1016.88 1016.79 1016.30 1016.16 1016.42 1016.70 1017.22 1017.71 1018.06 1017.77 1018.21 1018.77 1019.21 1019.64 1020.00 1020.22 1020.52 1020.66 1020.54 1020.35 1020.13 1019.86 1019.34 1018.97 1018.61 1017.89 1017.20 1016.34 1015.58 1014.77 1013.94 1013.15 1012.34 1011.51 1010.89 1010.46
1019.05 1018.98 1018.82 1019.24 1018.41 1017.22 1016.39 1016.60 1016.85 1016.96 1016.21 1015.85 1016.35 1016.61 1017.14 1017.87 1017.81 1017.45 1018.35 1018.89 1019.36 1019.83 1020.19 1020.42 1020.57 1020.61 1020.41 1020.20 1020.05 1019.69 1019.20 1019.06 1018.39 1017.71 1016.99 1016.05 1015.33 1014.47 1013.56 1012.68 1011.79 1011.01 1010.40 1010.02
1018.63 1018.85 1018.56 1018.49 1017.93 1017.08 1016.29 1016.62 1017.01 1016.76 1016.20 1015.70 1016.09 1016.42 1017.05 1017.43 1017.40 1018.00 1018.59 1019.03 1019.46 1019.89 1020.29 1020.58 1020.56 1020.42 1020.39 1020.29 1020.04 1019.62 1019.49 1018.88 1018.19 1017.55 1016.75 1015.76 1014.97 1014.21 1013.18 1012.29 1011.43 1010.55 1010.04 1009.75
1017.16 1017.85 1018.07 1018.24 1017.66 1016.71 1016.02 1016.84 1016.56 1015.46 1015.55 1015.65 1015.99 1016.26 1016.61 1016.98 1017.60 1018.05 1018.47 1018.86 1019.42 1019.87 1020.25 1020.48 1020.42 1020.34 1020.34 1020.26 1020.03 1019.65 1019.27 1018.65 1018.16 1017.40 1016.57 1015.51 1014.64 1013.71 1012.80 1011.98 1011.07 1010.34 1009.95 1009.46
1016.66 1016.33 1016.59 1017.03 1016.09 1015.64 1015.75 1015.18 1015.20 1015.58 1015.54 1015.56 1015.76 1015.92 1016.37 1016.77 1017.27 1017.79 1018.27 1018.80 1019.30 1019.87 1020.29 1020.50 1020.46 1020.35 1020.25 1020.13 1019.93 1019.54 1018.96 1018.57 1017.96 1017.24 1016.37 1015.47 1014.44 1013.46 1012.59 1011.71 1010.97 1010.36 1009.95 1009.56
1016.06 1016.24 1016.05 1016.39 1015.12 1015.13 1015.17 1015.09 1015.20 1015.18 1015.17 1015.27 1015.53 1015.79 1016.22 1016.43 1016.98 1017.56 1018.20 1018.77 1019.29 1019.83 1020.20 1020.44 1020.44 1020.29 1020.09 1020.00 1019.91 1019.73 1019.20 1018.58 1017.89 1017.13 1016.27 1015.39 1014.42 1013.47 1012.51 1011.76 1011.08 1010.57 1010.15 1009.88
1015.98 1016.03 1015.59 1015.32 1014.80 1014.81 1014.49 1014.53 1014.35 1014.48 1014.85 1015.05 1015.29 1015.54 1015.84 1016.29 1016.79 1017.39 1018.05 1018.74 1019.29 1019.83 1020.16 1020.41 1020.48 1020.39 1020.19 1020.04 1019.89 1019.56 1019.04 1018.56 1017.90 1017.12 1016.25 1015.39 1014.52 1013.57 1012.71 1012.00 1011.27 1010.83 1010.58 1010.60
1015.69 1015.27 1015.06 1014.12 1013.77 1013.85 1013.57 1013.70 1013.97 1014.13 1014.14 1014.28 1014.96 1015.37 1015.79 1016.19 1016.58 1017.32 1017.99 1018.77 1019.30 1019.74 1020.04 1020.24 1020.43 1020.45 1020.33 1020.04 1019.76 1019.56 1019.21 1018.65 1017.94 1017.16 1016.26 1015.52 1014.67 1013.75 1013.07 1012.34 1011.47 1010.99 1011.01 1010.86
Wind_Speed
5 4 5 4 5 7 7 4 1 2 3 3 3 9 11 13 13 12 10 10 8 8 7 7 8 8 8 6 6 6 6 5 5 6 6 5 5 5 4 4 5 7 6 8
3 6 3 6 6 6 3 2 3 2 3 4 4 5 5 11 11 10 11 10 11 11 11 12 11 9 7 6 7 8 8 7 5 4 4 4 5 6 6 6 5 6 7 9
4 5 4 1 3 3 2 2 1 4 5 1 4 2 3 7 8 9 11 12 11 13 13 13 12 10 8 9 10 10 10 8 6 6 6 5 6 6 7 8 9 9 10 10
6 2 1 2 3 1 1 1 4 5 4 7 5 3 2 2 12 13 14 15 14 14 15 13 11 10 9 10 9 11 11 10 7 6 6 7 7 8 8 8 8 10 12 12
3 6 2 1 2 1 2 3 2 2 2 3 3 5 4 1 8 14 14 16 15 15 13 12 10 10 8 5 6 6 6 5 5 5 6 6 8 8 8 9 12 12 11 13
3 1 0 1 2 3 2 2 3 2 1 3 3 4 3 2 4 7 13 15 15 12 7 1 3 3 5 4 4 4 5 4 6 7 9 10 11 12 11 13 12 12 12 12
1 2 2 1 3 4 3 4 3 1 0 2 2 4 3 4 6 7 12 14 10 4 2 2 4 5 4 3 4 5 5 6 8 10 11 11 11 12 14 14 12 14 12 12
3 3 1 2 2 2 4 2 2 4 4 6 1 2 2 1 1 2 6 5 5 3 0 2 2 3 4 4 5 6 7 10 12 11 11 10 12 10 11 11 11 11 11 11
5 3 1 5 2 3 3 1 2 4 1 4 2 2 6 5 4 3 6 6 5 3 3 1 3 5 6 6 7 7 9 11 12 12 11 13 13 14 12 13 12 10 12 11
4 2 1 3 2 9 2 7 2 1 3 4 2 4 3 7 9 5 6 6 4 4 4 4 5 6 7 7 7 8 10 13 13 12 14 13 14 14 14 13 13 14 14 13
3 0 2 3 2 1 3 2 4 1 2 3 5 3 2 4 6 9 8 6 4 5 5 5 6 5 6 7 9 11 13 15 14 14 15 15 15 15 14 12 13 13 13 13
2 3 2 2 2 4 2 1 1 2 3 0 3 7 2 3 4 3 7 4 2 3 5 6 5 6 7 9 11 14 14 15 15 15 16 15 15 14 13 12 13 13 14 12
6 2 1 2 3 2 1 3 4 4 0 6 5 6 3 2 4 4 3 2 4 4 5 6 6 7 9 11 13 14 15 15 15 15 15 15 14 14 13 14 15 13 12 12
5 3 4 3 2 1 4 3 3 3 3 7 11 17 13 6 9 6 4 3 4 5 7 7 8 10 12 13 14 14 14 14 14 15 14 14 14 15 15 16 13 13 13 13
2 3 3 3 4 4 7 9 7 8 9 7 13 13 17 12 7 6 4 4 6 8 8 9 9 11 14 14 14 14 14 14 14 15 15 15 15 14 15 14 13 13 13 11
1 3 2 3 0 3 7 11 10 10 6 10 12 14 4 1 3 5 5 6 8 8 8 9 10 13 14 14 14 15 14 14 14 13 14 15 15 16 14 13 14 14 13 11
4 6 4 3 2 6 8 6 4 3 4 4 5 4 2 5 7 6 8 7 9 7 8 9 11 12 12 13 13 14 14 14 15 14 14 15 16 15 13 13 13 13 12 9
7 5 0 3 3 4 3 2 5 7 9 8 10 8 6 5 4 6 7 8 6 6 8 9 10 11 12 12 13 13 13 14 14 14 15 15 16 14 14 13 13 12 8 9
0 5 3 3 3 6 4 4 4 3 6 8 9 5 5 3 4 9 7 6 5 5 6 7 8 10 11 12 12 13 14 13 14 14 15 16 15 14 14 13 13 12 8 7
5 4 4 4 4 4 1 3 3 4 4 3 8 7 8 5 5 3 1 5 4 4 5 7 9 10 10 12 11 12 13 12 13 14 15 16 14 14 14 14 13 9 8 7
4 3 8 5 6 6 9 6 5 3 4 3 8 7 9 7 5 3 4 4 3 3 5 6 8 9 10 11 11 12 12 13 14 14 15 16 14 14 13 12 11 10 7 7
9 8 5 3 5 9 9 7 8 4 2 3 6 9 10 9 4 5 5 3 4 4 5 7 8 9 10 10 10 12 12 13 14 13 14 16 14 12 10 12 10 10 7 7
6 6 5 9 6 1 9 4 6 1 4 3 5 8 10 8 8 6 5 5 5 4 5 6 8 10 10 9 10 12 13 14 15 13 14 15 14 13 12 11 11 8 7 6
5 4 4 4 7 12 9 8 9 8 11 7 8 7 10 9 7 6 5 5 4 3 5 6 8 10 11 10 11 10 13 13 14 14 14 13 12 13 12 9 8 6 6 6
2 8 6 5 9 6 9 10 10 9 10 9 7 9 11 9 7 6 5 5 4 3 4 6 7 9 11 11 12 12 13 13 13 13 12 12 10 11 10 10 8 6 6 6
4 4 5 7 8 6 6 6 6 9 10 13 11 9 9 10 8 7 5 4 4 3 4 6 7 8 11 12 10 11 12 13 13 12 10 10 10 9 8 8 8 8 9 16
Wind_Direction
28 95 77 63 85 111 120 112 104 180 171 273 235 272 214 184 189 185 181 182 180 196 202 242 251 263 276 283 292 291 298 297 301 311 318 311 305 313 304 304 317 302 315 305
99 94 88 101 86 100 106 100 38 275 355 315 353 20 148 191 200 201 190 194 203 212 227 240 244 253 266 293 294 281 275 289 319 317 329 317 314 301 302 306 328 323 339 320
108 111 149 89 74 60 51 35 291 304 347 79 318 148 173 194 202 201 207 213 218 227 237 248 260 267 286 284 285 289 294 310 324 325 304 294 282 268 296 318 322 332 329 315
82 129 178 58 76 339 285 259 283 287 290 317 346 302 191 210 218 221 214 215 223 227 238 254 264 273 270 276 287 301 304 310 308 312 300 311 308 308 325 313 315 315 318 320
102 170 161 59 26 258 16 6 8 359 150 216 39 271 100 223 225 223 218 219 223 233 244 265 298 293 278 320 341 336 329 327 350 357 358 343 334 323 319 312 315 310 306 312
76 310 340 82 105 50 335 243 68 92 175 194 24 312 130 272 293 224 212 218 221 233 250 317 326 330 330 350 348 6 359 358 356 351 347 343 333 329 322 319 311 307 308 306
43 11 330 206 227 164 14 350 326 211 337 348 23 253 350 297 254 236 208 209 215 201 173 304 318 316 341 342 352 338 349 335 341 340 337 337 331 322 309 308 305 305 299 297
198 208 343 10 12 353 49 349 311 310 311 324 199 232 67 223 350 294 252 202 144 142 42 292 310 330 325 326 319 315 330 329 333 328 325 318 311 305 302 299 301 295 296 295
175 233 17 41 58 325 126 251 56 113 120 259 307 227 242 209 199 165 137 141 139 150 157 268 261 278 301 299 300 316 324 320 319 319 316 315 313 308 300 295 293 291 292 290
162 216 66 97 139 58 292 125 213 114 286 293 228 269 290 217 222 190 178 174 172 173 213 257 289 286 278 285 302 304 315 325 320 314 316 315 312 307 302 296 293 292 292 293
125 141 121 237 22 306 155 185 67 47 309 285 301 304 176 264 284 248 206 186 190 204 224 284 302 303 283 291 307 319 325 323 315 317 316 311 308 305 297 292 288 286 288 288
42 105 255 358 354 290 343 26 178 227 186 147 309 285 162 281 306 236 182 187 200 226 280 299 308 311 300 309 318 323 323 316 316 316 311 306 304 301 298 289 289 288 282 281
175 55 310 182 170 140 173 119 104 93 56 210 265 266 156 224 221 198 204 234 243 258 293 308 303 308 311 315 321 322 321 316 315 315 315 312 308 306 298 295 294 287 282 273
95 129 199 250 304 304 256 197 204 234 240 285 252 290 288 274 236 212 228 256 285 288 304 307 307 314 314 322 325 324 320 316 317 319 316 312 314 315 308 303 294 283 279 275
96 187 208 261 245 234 267 268 249 235 255 250 292 285 291 307 244 231 264 261 285 292 299 311 310 313 320 327 327 322 319 321 324 326 319 312 316 310 303 301 294 287 284 275
55 150 189 262 329 240 276 278 261 253 258 255 277 282 318 302 210 224 256 269 281 290 301 307 311 319 326 327 323 323 324 325 326 320 318 319 312 306 306 302 297 291 286 279
152 150 175 275 332 310 267 236 212 238 212 247 269 331 228 223 234 251 267 270 272 285 300 306 317 323 321 321 322 321 324 329 323 322 314 310 311 307 307 302 297 296 292 285
139 122 141 297 303 244 60 206 282 260 278 232 262 257 238 252 257 270 267 271 268 282 293 308 319 318 319 319 322 323 328 327 321 317 314 316 318 312 306 303 300 300 296 295
216 140 134 262 246 317 225 191 185 182 285 227 243 245 218 218 297 276 254 232 261 275 296 309 318 313 314 319 326 323 322 324 322 317 318 317 317 307 306 305 301 300 297 300
89 73 222 168 232 260 246 164 155 166 277 219 214 228 201 173 264 337 224 199 223 247 301 312 321 315 314 328 325 317 324 328 321 325 315 316 311 306 307 306 303 302 295 298
157 160 221 205 240 270 246 156 159 224 254 201 207 218 185 208 243 100 166 190 210 274 299 318 314 316 324 326 323 319 325 323 325 317 314 318 314 310 308 309 309 304 307 301
186 171 190 171 224 260 154 130 196 215 197 236 210 216 212 228 208 212 207 206 219 263 302 322 317 325 328 328 323 323 324 328 323 318 316 319 317 317 317 316 313 315 318 306
205 208 188 196 215 81 205 233 220 170 271 227 230 219 216 219 219 203 211 208 227 266 308 319 321 323 327 332 328 324 325 329 326 323 320 322 319 322 324 322 322 329 330 331
218 161 213 161 230 241 233 241 244 232 235 235 237 228 199 210 197 197 207 204 226 262 305 319 322 325 328 338 334 328 327 329 329 327 323 322 322 325 327 327 332 338 349 345
350 163 187 239 268 265 253 236 248 247 239 241 231 215 213 201 184 193 202 206 217 264 298 314 326 326 333 338 337 336 337 337 334 327 326 327 325 327 329 333 337 351 21 1
195 202 207 247 237 222 229 210 227 230 232 236 221 208 207 200 182 181 184 187 193 249 304 316 327 332 339 335 339 341 341 335 333 329 331 328 322 330 335 336 342 350 52 32